Location: *
(43.2048°N, 0.1612°E)
Time: 17:53:05
(UTC+00:00)

BlueWalker 3 - Pass Details

Date: 30 September 2023
Orbit: 489 x 503 km, 53.2° (Epoch: 04 December)

Event Time Altitude Azimuth Distance (km) Brightness Sun altitude
Exits shadow 05:13:48 - 306° (NW) 2,113 4.6 -8.4°
Reaches altitude 10° 05:14:49 10° 306° (NW) 1,707 4.2 -8.2°
Maximum altitude 05:18:41 88° 218° (SW) 507 1.9 -7.5°
Drops below altitude 10° 05:22:33 10° 128° (SE) 1,709 5.4 -6.8°
Sets 05:24:44 0° 128° (SE) 2,593 6.4 -6.4°
